Home   Weather   Greenville   Past weeks

Flag for USA Past Weather in Greenville, South Carolina, USA — Yesterday and Last 2 Weeks

Now
60 °F

Mostly cloudy.


Feels Like: 60 °F
Forecast: 56 / 70 °F
Wind: 5 mph from Southeast

Location: Greenville Downtown Airport

Current Time: Jan 19, 2017 at 10:57:16 pm

Latest Report: Jan 19, 2017 at 9:53 pm


Visibility: 10 mi

Pressure: 29.96 "Hg

Humidity: 49%

Dew Point: 41 °F

Location of GreenvilleLocation

Past Weather in Greenville — Graph

°F

Greenville Temperature Yesterday

Maximum temperature yesterday: 78 °F (at 2:53 pm)
Minimum temperature yesterday: 54 °F (at 11:53 pm)
Average temperature yesterday: 66 °F

High & Low Weather Summary for the Past Weeks

 TemperatureHumidityPressure
High79 °F (Jan 13, 2:53 pm)96% (Jan 15, 12:53 am)30.78 "Hg (Jan 15, 12:53 am)
Low18 °F (Jan 8, 6:53 am)20% (Jan 18, 2:53 pm)29.86 "Hg (Jan 6, 2:53 am)
Average49 °F63%30.28 "Hg
* Reported Jan 4 8:53 pm — Jan 19 8:53 pm, Greenville, Weather by CustomWeather, © 2017

Note: Actual official high and low records may vary slightly from our data, if they occured in-between our weather recording intervals... More about our weather records

Advertising

Greenville Weather History for the Previous 24 Hours

Scroll right to see more
 ConditionsComfort  
Time TempWeatherWind HumidityBarometerVisibility
8:53 pm
Thu, Jan 19
60 °FClear.5 mph47%29.96 "Hg10 mi
7:53 pm60 °FPassing clouds.5 mph46%29.96 "Hg10 mi
6:53 pm62 °FClear.6 mph41%29.97 "Hg10 mi
5:53 pm63 °FPassing clouds.5 mph40%29.98 "Hg10 mi
4:53 pm65 °FPassing clouds.5 mph37%29.98 "Hg10 mi
3:53 pm66 °FPartly sunny.3 mph34%29.98 "Hg10 mi
2:53 pm66 °FOvercast.3 mph34%30.00 "Hg10 mi
1:53 pm64 °FPartly sunny.3 mph37%30.02 "Hg10 mi
12:53 pm62 °FOvercast.5 mph39%30.05 "Hg10 mi
11:53 am61 °FSunny.6 mph41%30.08 "Hg10 mi
10:53 am58 °FSunny.8 mph46%30.11 "Hg10 mi
9:53 am55 °FSunny.9 mph51%30.10 "Hg10 mi
8:53 am53 °FSunny.7 mph51%30.09 "Hg10 mi
7:53 am50 °FSunny.5 mph54%30.08 "Hg10 mi
6:53 am50 °FClear.5 mph50%30.06 "Hg10 mi
5:53 am50 °FClear.7 mph52%30.04 "Hg10 mi
4:53 am47 °FClear.No wind64%30.05 "Hg10 mi
3:53 am49 °FClear.No wind59%30.05 "Hg10 mi
2:53 am49 °FClear.No wind59%30.06 "Hg10 mi
1:53 am51 °FClear.3 mph50%30.03 "Hg10 mi
12:53 am52 °FClear.No wind50%30.04 "Hg10 mi
11:53 pm
Wed, Jan 18
54 °FClear.No wind45%30.05 "Hg10 mi
10:53 pm55 °FClear.No wind44%30.05 "Hg10 mi
Weather by CustomWeather, © 2017

See weather overviewHow to use our weather pages